EN

Hourly Weather Velbert

Today, 20 January, Wednesday

Time Temperature Precipitation Wind Pressure Humidity
00:00 +3°C° 0 mm 4 mps 731 mmHg 80%
01:00 +3°C° 0 mm 4 mps 731 mmHg 77%
02:00 +2°C° 0 mm 5 mps 730 mmHg 74%
03:00 +2°C° 0 mm 5 mps 730 mmHg 71%
04:00 +3°C° 0 mm 5 mps 729 mmHg 69%
05:00 +3°C° 0 mm 5 mps 729 mmHg 66%
06:00 +4°C° 0 mm 4 mps 729 mmHg 65%
07:00 +5°C° 0 mm 5 mps 729 mmHg 64%
08:00 +5°C° 0 mm 5 mps 729 mmHg 63%
09:00 +4°C° 0 mm 6 mps 728 mmHg 62%
10:00 +4°C° 0 mm 6 mps 728 mmHg 61%
11:00 +6°C° 0 mm 5 mps 728 mmHg 59%
12:00 +6°C° 0 mm 5 mps 728 mmHg 57%
13:00 +6°C° 0 mm 5 mps 727 mmHg 58%
14:00 +7°C° 0 mm 5 mps 727 mmHg 58%
15:00 +7°C° 0 mm 5 mps 726 mmHg 59%
16:00 +7°C° 0 mm 5 mps 726 mmHg 62%
17:00 +7°C° 0 mm 5 mps 726 mmHg 66%
18:00 +5°C° 0 mm 6 mps 725 mmHg 70%
19:00 +5°C° 0 mm 6 mps 725 mmHg 71%
20:00 +5°C° 0 mm 6 mps 725 mmHg 72%
21:00 +5°C° 0 mm 6 mps 724 mmHg 73%
22:00 +6°C° 0 mm 7 mps 724 mmHg 71%
23:00 +6°C° 0 mm 7 mps 723 mmHg 70%

Tomorrow, 21 January, Thursday

Time Temperature Precipitation Wind Pressure Humidity
00:00 +6°C° 0 mm 8 mps 723 mmHg 69%
01:00 +6°C° 0 mm 8 mps 722 mmHg 68%
02:00 +6°C° 0 mm 9 mps 721 mmHg 67%
03:00 +7°C° 0 mm 9 mps 720 mmHg 66%
04:00 +7°C° 0.4 mm 10 mps 720 mmHg 69%
05:00 +7°C° 0.4 mm 10 mps 720 mmHg 73%
06:00 +7°C° 0.4 mm 10 mps 720 mmHg 76%
07:00 +6°C° 0.7 mm 9 mps 721 mmHg 73%
08:00 +5°C° 0.7 mm 8 mps 721 mmHg 70%
09:00 +4°C° 0.7 mm 6 mps 722 mmHg 67%
10:00 +4°C° 0 mm 6 mps 722 mmHg 64%
11:00 +5°C° 0 mm 7 mps 723 mmHg 62%
12:00 +5°C° 0 mm 7 mps 723 mmHg 59%
13:00 +5°C° 0 mm 7 mps 723 mmHg 60%
14:00 +5°C° 0 mm 7 mps 722 mmHg 61%
15:00 +5°C° 0 mm 6 mps 722 mmHg 62%
16:00 +4°C° 0 mm 6 mps 722 mmHg 63%
17:00 +5°C° 0 mm 5 mps 722 mmHg 64%
18:00 +5°C° 0 mm 5 mps 722 mmHg 66%
19:00 +5°C° 0.4 mm 5 mps 721 mmHg 72%
20:00 +5°C° 0.4 mm 5 mps 720 mmHg 78%
21:00 +5°C° 0.4 mm 5 mps 719 mmHg 84%
22:00 +5°C° 0.6 mm 5 mps 718 mmHg 82%
23:00 +5°C° 0.6 mm 6 mps 718 mmHg 81%

Day after tomorrow, 22 January, Friday

Time Temperature Precipitation Wind Pressure Humidity
00:00 +5°C° 0.6 mm 6 mps 717 mmHg 79%
01:00 +4°C° 1.1 mm 6 mps 717 mmHg 82%
02:00 +4°C° 1.1 mm 7 mps 717 mmHg 85%
03:00 +3°C° 1.1 mm 7 mps 717 mmHg 88%
04:00 +2°C° 0.4 mm 6 mps 718 mmHg 87%
05:00 +2°C° 0.4 mm 5 mps 719 mmHg 85%
06:00 +1°C° 0.4 mm 4 mps 720 mmHg 83%
07:00 +1°C° 0 mm 4 mps 721 mmHg 82%
08:00 +1°C° 0 mm 4 mps 721 mmHg 82%
09:00 +1°C° 0 mm 4 mps 722 mmHg 81%
10:00 +3°C° 0 mm 3 mps 722 mmHg 78%
11:00 +3°C° 0 mm 3 mps 722 mmHg 75%
12:00 +4°C° 0 mm 3 mps 722 mmHg 72%
13:00 +4°C° 0.1 mm 3 mps 721 mmHg 74%
14:00 +5°C° 0.1 mm 2 mps 721 mmHg 76%
15:00 +4°C° 0.1 mm 2 mps 720 mmHg 78%
16:00 +4°C° 0.1 mm 2 mps 721 mmHg 80%
17:00 +3°C° 0.1 mm 2 mps 721 mmHg 83%
18:00 +4°C° 0.1 mm 1 mps 721 mmHg 86%
19:00 +3°C° 0.1 mm 2 mps 721 mmHg 87%
20:00 +3°C° 0.1 mm 2 mps 722 mmHg 89%
21:00 +3°C° 0.1 mm 2 mps 722 mmHg 90%
22:00 +2°C° 0 mm 2 mps 722 mmHg 91%
23:00 +3°C° 0 mm 1 mps 722 mmHg 91%

23 January, Saturday

Time Temperature Precipitation Wind Pressure Humidity
00:00 +3°C° 0 mm 1 mps 723 mmHg 92%
01:00 +3°C° 0 mm 1 mps 723 mmHg 93%
02:00 +2°C° 0 mm 1 mps 723 mmHg 93%
03:00 +2°C° 0 mm 1 mps 723 mmHg 94%
04:00 +2°C° 0 mm 1 mps 723 mmHg 93%
05:00 +1°C° 0 mm 2 mps 723 mmHg 92%
06:00 +1°C° 0 mm 2 mps 723 mmHg 91%
07:00 +1°C° 0.1 mm 2 mps 723 mmHg 90%
08:00 +1°C° 0.1 mm 2 mps 723 mmHg 89%
09:00 +1°C° 0.1 mm 2 mps 723 mmHg 87%
10:00 +2°C° 0.2 mm 2 mps 723 mmHg 86%
11:00 +3°C° 0.2 mm 2 mps 723 mmHg 84%
12:00 +3°C° 0.2 mm 2 mps 723 mmHg 83%
13:00 +3°C° 0.2 mm 2 mps 723 mmHg 83%
14:00 +3°C° 0.2 mm 2 mps 723 mmHg 83%
15:00 +3°C° 0.2 mm 2 mps 723 mmHg 83%
16:00 +2°C° 0.4 mm 2 mps 723 mmHg 86%
17:00 +2°C° 0.4 mm 2 mps 723 mmHg 88%
18:00 +1°C° 0.4 mm 2 mps 723 mmHg 91%
19:00 +1°C° 0.3 mm 2 mps 724 mmHg 92%
20:00 0°C° 0.3 mm 3 mps 724 mmHg 93%
21:00 0°C° 0.3 mm 3 mps 724 mmHg 95%
22:00 0°C° 0.3 mm 3 mps 724 mmHg 93%
23:00 0°C° 0.3 mm 3 mps 725 mmHg 92%

24 January, Sunday

Time Temperature Precipitation Wind Pressure Humidity
00:00 0°C° 0.3 mm 3 mps 725 mmHg 91%
01:00 -1°C° 0 mm 3 mps 725 mmHg 89%
02:00 -1°C° 0 mm 3 mps 725 mmHg 88%
03:00 -1°C° 0 mm 3 mps 725 mmHg 86%
04:00 -1°C° 0 mm 3 mps 726 mmHg 87%
05:00 -2°C° 0 mm 2 mps 726 mmHg 88%
06:00 -2°C° 0 mm 2 mps 726 mmHg 89%
07:00 -2°C° 0 mm 2 mps 727 mmHg 88%
08:00 -2°C° 0 mm 2 mps 727 mmHg 87%
09:00 -2°C° 0 mm 2 mps 727 mmHg 85%
10:00 -1°C° 0 mm 2 mps 728 mmHg 80%
11:00 +1°C° 0 mm 2 mps 728 mmHg 74%
12:00 +2°C° 0 mm 2 mps 728 mmHg 69%
13:00 +2°C° 0 mm 2 mps 728 mmHg 68%
14:00 +2°C° 0 mm 2 mps 727 mmHg 67%
15:00 +3°C° 0 mm 1 mps 727 mmHg 66%
16:00 +1°C° 0 mm 2 mps 727 mmHg 70%
17:00 -1°C° 0 mm 2 mps 727 mmHg 75%
18:00 -2°C° 0 mm 2 mps 727 mmHg 79%
19:00 -2°C° 0 mm 2 mps 727 mmHg 80%
20:00 -2°C° 0 mm 2 mps 727 mmHg 80%
21:00 -2°C° 0 mm 3 mps 727 mmHg 81%
22:00 -2°C° 0 mm 2 mps 727 mmHg 82%
23:00 -2°C° 0 mm 2 mps 728 mmHg 82%

25 January, Monday

Time Temperature Precipitation Wind Pressure Humidity
00:00 -2°C° 0 mm 2 mps 728 mmHg 83%
01:00 -2°C° 0 mm 2 mps 728 mmHg 84%
02:00 -2°C° 0 mm 2 mps 728 mmHg 85%
03:00 -2°C° 0 mm 2 mps 728 mmHg 86%
04:00 -2°C° 0 mm 2 mps 728 mmHg 88%
05:00 -2°C° 0 mm 2 mps 729 mmHg 91%
06:00 -2°C° 0 mm 3 mps 729 mmHg 93%
07:00 -2°C° 0.2 mm 3 mps 729 mmHg 94%
08:00 -2°C° 0.2 mm 3 mps 729 mmHg 94%
09:00 -1°C° 0.2 mm 3 mps 730 mmHg 94%
10:00 -1°C° 0.4 mm 3 mps 730 mmHg 94%
11:00 0°C° 0.4 mm 3 mps 730 mmHg 93%
12:00 0°C° 0.4 mm 3 mps 731 mmHg 92%
13:00 0°C° 0.1 mm 3 mps 731 mmHg 87%
14:00 +1°C° 0.1 mm 3 mps 732 mmHg 82%
15:00 0°C° 0.1 mm 4 mps 732 mmHg 77%
16:00 +1°C° 0 mm 3 mps 733 mmHg 81%
17:00 0°C° 0 mm 3 mps 733 mmHg 86%
18:00 -1°C° 0 mm 3 mps 734 mmHg 90%
19:00 -1°C° 0 mm 3 mps 735 mmHg 91%
20:00 0°C° 0 mm 3 mps 736 mmHg 91%
21:00 0°C° 0 mm 3 mps 736 mmHg 92%
22:00 0°C° 0 mm 3 mps 737 mmHg 92%
23:00 0°C° 0 mm 3 mps 737 mmHg 91%
Show more

We Need Your Consent

Meteoprog and our Service Providers may store and access personal data such as cookies, device identifiers or other similar technologies on your device and process such data to personalise content and ads, as well as provide social media features and to analyse the traffic.

  • Store and/or access information on your device

    Cookies, device identifiers or other information can be stored or accessed on your device for the purposes indicated above.

  • Personalised ads and content, ad and content measurement, audience insights, and products development

    Ads and content can be personalised based on a profile. More data can be added to better personalise ads and content. Ad and content performance can be measured. Insights about the audience who saw the ads and content can be derived. Such data can be used to develop or improve user’s experience, systems and software.

By clicking ‘I Agree’ you will allow the use of indicated cookies, device identifiers, web beacons or other similar technologies. Your settings can be changed in the browser on your device.

For certain purposes, legitimate interests may be relied on, rather than consent. You can read more about this in our Privacy and Cookie Policy.